User: anonymous   Login
Location: Kitchener
(43.2612°N, 80.5078°W)
Time: 03:33:52
(UTC+02:00)
Language:

Iridium 57 - Orbit

View from above orbital plane
View from above orbital plane
View from above satellite
View from above satellite

Ground track
Ground track

The orbit data is extracted from the following two-line orbital elements,

1 25273U 98019B   15241.38591735  .00000170  00000-0  53600-4 0  9996
2 25273 086.3989 202.2394 0002303 083.3757 276.7701 14.34219278911784
Epoch (UTC): 29 August 2015 09:15:43
Eccentricity: 0.0002303
inclination: 86.3989°
perigee height: 776 km
apogee height: 779 km
right ascension of ascending node: 202.2394°
argument of perigee: 83.3757°
revolutions per day: 14.34219278
mean anomaly at epoch: 276.7701°
orbit number at epoch: 91178

The dashed part of the orbit path shows where the satellite is in the earth's shadow,  

DLR